Location: Lake of the Woods (North-East)
(49.6672°N, 94.8656°W)
Time: 12:12:23
(UTC-05:00)

ISS - All Passes

Search period start: 30 July 2014 00:00
Search period end: 09 August 2014 00:00
Orbit: 411 x 419 km, 51.6° (Epoch: 30 July)

Date Brightness Start Highest point End Pass type
(mag) Time Alt. Az. Time Alt. Az. Time Alt. Az.
30 Jul - 00:16:51 10° SSW 00:19:48 29° SE 00:22:46 10° E visible
30 Jul - 01:52:57 10° WSW 01:56:19 81° NNW 01:59:41 10° ENE visible
30 Jul - 03:29:53 10° WNW 03:33:13 61° N 03:36:34 10° E visible
30 Jul - 05:06:40 10° WNW 05:10:00 62° SSW 05:13:20 10° ESE visible
30 Jul - 06:44:17 10° WSW 06:46:13 15° SW 06:48:08 10° S daylight
30 Jul - 23:28:38 10° S 23:31:08 20° SE 23:33:39 10° E night (unlit)
31 Jul - 01:04:08 10° WSW 01:07:29 79° SSE 01:10:51 10° ENE visible
31 Jul - 02:41:00 10° W 02:44:19 59° N 02:47:40 10° E visible
31 Jul - 04:17:49 10° WNW 04:21:11 84° SSW 04:24:33 10° ESE visible
31 Jul - 05:54:55 10° W 05:57:35 22° SW 06:00:14 10° SSE daylight
31 Jul - 22:40:54 10° SSE 22:42:31 13° SE 22:44:08 10° ESE night (unlit)
01 Aug - 00:15:23 10° SW 00:18:40 57° SSE 00:21:59 10° ENE visible
01 Aug - 01:52:05 10° W 01:55:25 62° N 01:58:46 10° ENE visible
01 Aug - 03:28:58 10° WNW 03:32:20 77° NNE 03:35:42 10° E visible
01 Aug - 05:05:50 10° W 05:08:53 32° SSW 05:11:55 10° SSE visible
01 Aug - 23:26:45 10° SW 23:29:54 40° SSE 23:33:04 10° E night (unlit)
02 Aug - 01:03:11 10° W 01:06:32 70° NNW 01:09:53 10° ENE visible
02 Aug - 02:40:06 10° WNW 02:43:27 66° N 02:46:48 10° E visible
02 Aug - 04:16:53 10° WNW 04:20:08 47° SSW 04:23:23 10° SE visible
02 Aug - 05:56:01 10° SW 05:56:12 10° SW 05:56:22 10° SW daylight
02 Aug - 22:38:18 10° SSW 22:41:10 27° SE 22:44:03 10° E visible
03 Aug - 00:14:18 10° WSW 00:17:39 84° NNW 00:21:01 10° ENE visible
03 Aug - 01:51:12 10° WNW 01:54:32 60° N 01:57:52 10° E visible
03 Aug - 03:27:59 10° WNW 03:31:20 67° SSW 03:34:40 10° ESE visible
03 Aug - 05:05:28 10° W 05:07:35 16° SW 05:09:42 10° S visible
03 Aug - 21:50:07 10° S 21:52:29 18° SE 21:54:51 10° E visible
03 Aug - 23:25:27 10° WSW 23:28:47 75° SSE 23:32:08 10° ENE visible
04 Aug - 01:02:17 10° W 01:05:37 59° N 01:08:57 10° E visible
04 Aug - 02:39:07 10° WNW 02:42:29 88° S 02:45:51 10° ESE visible
04 Aug - 04:16:09 10° W 04:18:54 24° SW 04:21:39 10° SSE visible
04 Aug - 21:02:33 10° SSE 21:03:50 12° SE 21:05:08 10° ESE daylight
04 Aug - 22:36:42 10° SW 22:39:57 53° SSE 22:43:14 10° ENE visible
05 Aug - 00:13:21 10° W 00:16:41 63° N 00:20:01 10° ENE visible
05 Aug - 01:50:14 10° WNW 01:53:36 74° NNE 01:56:57 10° E visible
05 Aug - 03:27:05 10° W 03:30:10 34° SSW 03:33:15 10° SE night (unlit)
05 Aug - 21:48:04 10° SW 21:51:10 36° SSE 21:54:17 10° E visible
05 Aug - 23:24:25 10° W 23:27:45 72° NNW 23:31:07 10° ENE visible
06 Aug - 01:01:20 10° WNW 01:04:40 64° N 01:08:01 10° E visible
06 Aug - 02:38:07 10° WNW 02:41:23 50° SSW 02:44:39 10° SE night (unlit)
06 Aug - 04:16:27 10° WSW 04:17:29 11° SW 04:18:30 10° SSW night (unlit)
06 Aug - 20:59:38 10° SSW 21:02:24 25° SE 21:05:12 10° E daylight
06 Aug - 22:35:30 10° WSW 22:38:51 88° NNW 22:42:13 10° ENE visible
07 Aug - 00:12:24 10° WNW 00:15:44 59° N 00:19:03 10° E visible
07 Aug - 01:49:11 10° WNW 01:52:32 71° SSW 01:55:53 10° ESE visible
07 Aug - 03:26:32 10° W 03:28:49 17° SW 03:31:06 10° S night (unlit)
07 Aug - 20:11:30 10° S 20:13:42 17° SE 20:15:55 10° E daylight
07 Aug - 21:46:39 10° WSW 21:49:58 70° SSE 21:53:18 10° ENE visible
07 Aug - 23:23:27 10° W 23:26:46 59° N 23:30:06 10° ENE visible
08 Aug - 01:00:17 10° WNW 01:03:39 87° NNE 01:07:01 10° ESE visible
08 Aug - 02:37:16 10° W 02:40:06 25° SW 02:42:56 10° SSE night (unlit)
08 Aug - 19:24:14 10° SSE 19:25:02 11° SE 19:25:50 10° ESE daylight
08 Aug - 20:57:53 10° SW 21:01:06 49° SSE 21:04:22 10° ENE daylight
08 Aug - 22:34:29 10° W 22:37:48 64° N 22:41:09 10° ENE visible
